星链-32031 (STARLINK-32031)

导读 | 豆包AI

STARLINK-32031是美国太空探索技术公司SpaceX于2024年6月27日发射的星链低轨通信卫星,属于星链卫星互联网星座的一部分。星链项目旨在为全球偏远地区、海上及航空场景提供高速低延迟宽带互联网接入。 该卫星应该为第二代星链V2 Mini卫星,配备先进相控阵天线与激光星间链路,支持更高带宽传输,助力星链星座实现全球覆盖,截至2025年,SpaceX已累计发射超9400颗星链卫星,推动全球卫星通信网络的构建。

基本信息
目录编号:
60142
目录名称:
STARLINK-32031
国际标识:
2024-120H
轨道中心:
EARTH
卫星名称:
星链-32031
卫星全名:
星链-32031 (STARLINK-32031)
卫星状态:
在轨 (已飞行673 天)
发射日期:
2024-06-27 UTC
国别 :
美国 (US)
星等 :
--
轨道信息
数据来源 国际轨道数据
星历时间: 2026-04-30T22:44:16+0800
12小时前
查看轨道信息
半长轴: 6853.39km
偏心率: 0.0001357
轨道倾角: 53.161°
近地点辐角 90.434°
升交点赤经 78.912°
平近点角 269.681°
近地点: 474.322km
远地点: 476.184km
周期: 94.106分钟
每日圈数: 15.301875
详细信息
固有亮度:
5
最大亮度:
2.5
卫星平台:
Starlink V1.0
覆盖范围:
全球
运营商:
太空探索技术公司
运营商所在国:
美国
制造商(研发单位):
太空探索技术公司
制造商所在国:
美国
使用方式:
暂无
卫星简介
Starlink 计划是 SpaceX 推出的全球卫星互联网项目,通过发射低轨道卫星,为全球尤其是偏远地区提供高速、低延迟的互联网服务。自 2019 年起,Starlink 已部署数千颗卫星,旨在缩小全球数字鸿沟,推动互联网普及。该项目还为军事、航空等行业提供通信支持,带来广泛经济效益。
2D轨道图
3D轨道图
轨道高度分析图
轨道倾角分析图
轨道综合分析图
查看轨道综合分析图